| time (UTC) | temp C | wind direction | speed KPH | gust KPH | rain 1hr cm | rain 24hr cm | rain mn cm | humidity % | barometer mb |
| 20260506195357 | 13 | 34 | 0.0 | 0.0 | 0.00 | 0.00 | 0.00 | 59 | 1010.9 |
| 20260506193857 | 14 | 34 | 0.0 | 0.0 | 0.00 | 0.00 | 0.00 | 57 | 1010.8 |
| 20260506192358 | 15 | 34 | 0.0 | 9.7 | 0.00 | 0.00 | 0.00 | 54 | 1010.6 |
| 20260506190857 | 15 | 25 | 0.0 | 0.0 | 0.00 | 0.00 | 0.00 | 51 | 1010.6 |
| 20260506183858 | 16 | 34 | 0.0 | 11.3 | 0.00 | 0.00 | 0.00 | 47 | 1010.7 |
| 20260506180858 | 16 | 49 | 0.0 | 12.9 | 0.00 | 0.00 | 0.00 | 47 | 1010.6 |
| 20260506175357 | 16 | 25 | 6.4 | 9.7 | 0.00 | 0.00 | 0.00 | 47 | 1010.6 |
| 20260506173857 | 16 | 32 | 0.0 | 9.7 | 0.00 | 0.00 | 0.00 | 47 | 1010.7 |
| 20260506172358 | 16 | 33 | 3.2 | 11.3 | 0.00 | 0.00 | 0.00 | 48 | 1010.8 |
| 20260506170858 | 17 | 19 | 3.2 | 0.0 | 0.00 | 0.00 | 0.00 | 44 | 1010.8 |
| 20260506162358 | 16 | 356 | 0.0 | 8.0 | 0.00 | 0.00 | 0.00 | 45 | 1011.3 |
| 20260506160857 | 16 | 20 | 0.0 | 4.8 | 0.00 | 0.00 | 0.00 | 45 | 1011.4 |
| 20260506155358 | 16 | 58 | 0.0 | 14.5 | 0.00 | 0.00 | 0.00 | 45 | 1011.5 |
| 20260506153857 | 16 | 39 | 9.7 | 14.5 | 0.00 | 0.00 | 0.00 | 46 | 1011.5 |
| 20260506152358 | 16 | 13 | 3.2 | 8.0 | 0.00 | 0.00 | 0.00 | 47 | 1011.6 |
| 20260506143901 | 16 | 34 | 9.7 | 14.5 | 0.00 | 0.00 | 0.00 | 46 | 1012.1 |
| 20260506140859 | 16 | 59 | 4.8 | 9.7 | 0.00 | 0.00 | 0.00 | 49 | 1012.4 |
| 20260506133858 | 16 | 42 | 8.0 | 8.0 | 0.00 | 0.00 | 0.00 | 46 | 1012.8 |
| 20260506132359 | 16 | 136 | 0.0 | 11.3 | 0.00 | 0.00 | 0.00 | 47 | 1013.0 |
| 20260506130900 | 16 | 59 | 6.4 | 8.0 | 0.00 | 0.00 | 0.00 | 49 | 1013.0 |
| 20260506125359 | 15 | 247 | 0.0 | 8.0 | 0.00 | 0.00 | 0.00 | 47 | 1013.2 |
| 20260506123859 | 16 | 295 | 0.0 | 8.0 | 0.00 | 0.00 | 0.00 | 49 | 1013.3 |
| 20260506122400 | 15 | 66 | 0.0 | 9.7 | 0.00 | 0.00 | 0.00 | 50 | 1013.5 |
| 20260506120859 | 15 | 274 | 0.0 | 9.7 | 0.00 | 0.00 | 0.00 | 50 | 1013.5 |
| 20260506115359 | 15 | 260 | 1.6 | 6.4 | 0.00 | 0.00 | 0.00 | 52 | 1013.7 |
| 20260506113858 | 13 | 227 | 4.8 | 9.7 | 0.00 | 0.00 | 0.00 | 54 | 1014.0 |
| 20260506112359 | 13 | 188 | 3.2 | 12.9 | 0.00 | 0.00 | 0.00 | 56 | 1014.1 |
| 20260506110859 | 13 | 321 | 6.4 | 12.9 | 0.00 | 0.00 | 0.00 | 57 | 1014.2 |
| 20260506105359 | 12 | 252 | 1.6 | 14.5 | 0.00 | 0.00 | 0.00 | 60 | 1014.2 |
| 20260506103859 | 12 | 54 | 8.0 | 16.1 | 0.00 | 0.00 | 0.00 | 59 | 1014.3 |
| 20260506102357 | 12 | 316 | 1.6 | 17.7 | 0.00 | 0.00 | 0.00 | 65 | 1014.2 |
| 20260506100858 | 11 | 37 | 11.3 | 16.1 | 0.00 | 0.00 | 0.00 | 60 | 1014.3 |
| 20260506095357 | 11 | 38 | 8.0 | 14.5 | 0.00 | 0.00 | 0.00 | 67 | 1014.3 |
| 20260506093857 | 11 | 353 | 6.4 | 14.5 | 0.00 | 0.00 | 0.00 | 75 | 1014.4 |
| 20260506092358 | 10 | 37 | 11.3 | 9.7 | 0.00 | 0.00 | 0.00 | 77 | 1014.5 |
| 20260506090857 | 10 | 27 | 9.7 | 9.7 | 0.00 | 0.00 | 0.00 | 82 | 1014.5 |
| 20260506085357 | 8 | 29 | 6.4 | 9.7 | 0.00 | 0.00 | 0.00 | 84 | 1014.4 |
| 20260506082357 | 8 | 51 | 3.2 | 6.4 | 0.00 | 0.00 | 0.00 | 85 | 1014.5 |
| 20260506080857 | 7 | 52 | 3.2 | 0.0 | 0.00 | 0.00 | 0.00 | 84 | 1014.5 |
| 20260506072357 | 6 | 53 | 0.0 | 0.0 | 0.00 | 0.00 | 0.00 | 81 | 1014.6 |
| 20260506070858 | 5 | 53 | 0.0 | 0.0 | 0.00 | 0.00 | 0.00 | 80 | 1014.6 |
| 20260506062358 | 4 | 34 | 0.0 | 0.0 | 0.00 | 0.00 | 0.00 | 79 | 1014.3 |
| 20260506060857 | 3 | 34 | 0.0 | 0.0 | 0.00 | 0.00 | 0.00 | 80 | 1014.5 |
| 20260506050857 | 4 | 34 | 0.0 | 0.0 | 0.00 | 0.00 | 0.00 | 80 | 1013.9 |
| 20260506043857 | 4 | 34 | 0.0 | 0.0 | 0.00 | 0.00 | 0.00 | 80 | 1014.0 |
| 20260506042358 | 4 | 34 | 0.0 | 0.0 | 0.00 | 0.00 | 0.00 | 80 | 1014.0 |
| 20260506040858 | 4 | 34 | 0.0 | 0.0 | 0.00 | 0.00 | 0.00 | 80 | 1014.0 |
| 20260506035357 | 4 | 34 | 0.0 | 0.0 | 0.00 | 0.00 | 0.00 | 80 | 1014.1 |
| 20260506033857 | 4 | 34 | 0.0 | 0.0 | 0.00 | 0.00 | 0.00 | 81 | 1014.1 |
| 20260506032358 | 5 | 34 | 0.0 | 0.0 | 0.00 | 0.00 | 0.00 | 81 | 1014.3 |
| 20260506030859 | 5 | 34 | 0.0 | 0.0 | 0.00 | 0.00 | 0.00 | 81 | 1014.3 |
| 20260506025357 | 5 | 34 | 0.0 | 4.8 | 0.00 | 0.00 | 0.00 | 82 | 1014.3 |
| 20260506023858 | 5 | 34 | 1.6 | 0.0 | 0.00 | 0.00 | 0.00 | 84 | 1014.2 |
| 20260506022358 | 5 | 34 | 0.0 | 0.0 | 0.00 | 0.00 | 0.00 | 83 | 1014.2 |
| 20260506020857 | 5 | 34 | 0.0 | 3.2 | 0.00 | 0.00 | 0.00 | 84 | 1014.1 |
| 20260506015358 | 5 | 34 | 0.0 | 3.2 | 0.00 | 0.00 | 0.00 | 84 | 1014.0 |
| 20260506013858 | 5 | 34 | 0.0 | 0.0 | 0.00 | 0.00 | 0.00 | 83 | 1014.2 |
| 20260506012357 | 5 | 33 | 0.0 | 0.0 | 0.00 | 0.00 | 0.00 | 84 | 1014.3 |
| 20260506010857 | 6 | 33 | 0.0 | 0.0 | 0.00 | 0.00 | 0.00 | 84 | 1014.4 |
| 20260506005358 | 6 | 33 | 0.0 | 0.0 | 0.00 | 0.00 | 0.00 | 84 | 1014.4 |
| 20260506003857 | 6 | 34 | 0.0 | 0.0 | 0.00 | 0.00 | 0.00 | 85 | 1014.5 |
| 20260506002357 | 6 | 33 | 0.0 | 0.0 | 0.00 | 0.00 | 0.00 | 85 | 1014.5 |
| 20260506000858 | 6 | 34 | 0.0 | 0.0 | 0.00 | 0.00 | 0.00 | 85 | 1014.4 |
| 20260505235357 | 6 | 33 | 0.0 | 0.0 | 0.00 | 0.00 | 0.00 | 85 | 1014.4 |
| 20260505233857 | 6 | 33 | 0.0 | 0.0 | 0.00 | 0.00 | 0.00 | 85 | 1014.5 |
| 20260505232358 | 7 | 34 | 0.0 | 0.0 | 0.00 | 0.00 | 0.00 | 85 | 1014.4 |
| 20260505230900 | 7 | 34 | 0.0 | 0.0 | 0.00 | 0.00 | 0.00 | 85 | 1014.4 |
| 20260505225357 | 7 | 33 | 0.0 | 0.0 | 0.00 | 0.00 | 0.00 | 85 | 1014.5 |
| 20260505223858 | 7 | 33 | 0.0 | 0.0 | 0.00 | 0.00 | 0.00 | 84 | 1014.5 |
| 20260505222358 | 7 | 33 | 0.0 | 0.0 | 0.00 | 0.00 | 0.00 | 84 | 1014.6 |
| 20260505220857 | 8 | 33 | 0.0 | 0.0 | 0.00 | 0.00 | 0.00 | 84 | 1014.6 |
| 20260505215358 | 8 | 34 | 0.0 | 0.0 | 0.00 | 0.00 | 0.00 | 84 | 1014.6 |
| 20260505213857 | 8 | 33 | 0.0 | 0.0 | 0.00 | 0.00 | 0.00 | 84 | 1014.5 |
| 20260505212358 | 8 | 33 | 0.0 | 0.0 | 0.00 | 0.00 | 0.00 | 80 | 1014.5 |
| 20260505210857 | 8 | 33 | 0.0 | 0.0 | 0.00 | 0.00 | 0.00 | 81 | 1014.5 |
| 20260505205358 | 8 | 34 | 0.0 | 0.0 | 0.00 | 0.00 | 0.00 | 81 | 1014.5 |
| 20260505203859 | 8 | 34 | 0.0 | 4.8 | 0.00 | 0.00 | 0.00 | 80 | 1014.3 |
| 20260505202357 | 9 | 34 | 0.0 | 0.0 | 0.00 | 0.00 | 0.00 | 79 | 1014.2 |
| 20260505200858 | 10 | 35 | 0.0 | 0.0 | 0.00 | 0.00 | 0.00 | 76 | 1013.9 |